User: anonymous   Login
Location: Great Northern Moose Lodge
(44.6765°N, 71.1811°W)
Time: 00:21:58
(UTC-04:00)
Language:

Terra - Orbit

View from above orbital plane
View from above orbital plane
View from above satellite
View from above satellite

Ground track
Ground track

The orbit data is extracted from the following two-line orbital elements,

1 25994U 99068A   15244.71614077  .00000175  00000-0  48851-4 0  9993
2 25994  98.2084 318.1941 0001085  90.9446 269.1881 14.57129912835366
Epoch (UTC): 01 September 2015 17:11:14
Eccentricity: 0.0001085
inclination: 98.2084°
perigee height: 701 km
apogee height: 703 km
right ascension of ascending node: 318.1941°
argument of perigee: 90.9446°
revolutions per day: 14.57129912
mean anomaly at epoch: 269.1881°
orbit number at epoch: 83536

The dashed part of the orbit path shows where the satellite is in the earth's shadow,  

DLR